OBJECT K, 61236

Orbit data source: Space-Track

You're viewing an Uncataloged Satellite

Recently launched and/or uncataloged satellites may have evolving metadata. Metadata may include but not limited to: Owner, Maufacturer, Bus, Motor, and Mission.

OBJECT K, 61236 is a satellite owned by Changzheng H. (CN) in SSO that was launched on Tue, 24 Sep 2024 UTC launched from the Yellow Sea Launch Area, China (YSLA). Unknown objects in Earth's orbit typically refer to objects detected orbiting the Earth but have not yet been identified or cataloged. These objects could be anything from previously untracked satellites, spent rocket stages, debris from satellite collisions, or even natural meteoroids temporarily captured by Earth's gravity.

Not visible in the next 10 days
Identifier
61236, 2024-173K
Orbit
SSO
Country
Flag of CNCN / PRC
Related business
Manufacturer
Changzheng H.
Mission
Spacecraft
Bus & Motor
Unknown
Mass
Unknown
Launch date (UTC)
2024-09-24 (11 months ago)
Launch vehicle
Unknown
Launch site
Yellow Sea Launch Area, China (YSLA)
Object type
Unknown
Shape & HBR
Unknown
Radar Cross Section
Medium (>0.1 m² and <1 m²)

Expand to show TLE details & history
Last TLE update: 12 hours ago

TLE from 12 hours ago
0 OBJECT K
1 61236U 24173K   25241.97369455  .00876864  37829-3  15810-2 0  9995
2 61236  97.3877 330.8382 0008487 241.9502 118.0920 16.01613281 52667
Epoch: 2025-08-29T23:22Z
TLE epoch observation values (Epoch: 2025-08-29T23:22:07.209Z)
Latitude
0.00008°
Longitude
1.8935°
Altitude
275.812 km
Speed
7.74 km/s
True Right ascension
22h 03m 21s
True Declination
0° 00' 00"
Sunlit
Object was in full shadow at epoch
Visualization orbit readout
Latitude
Unknown
Longitude
Unknown
Altitude
Unknown
Speed
Unknown
Apparent Right ascension
Unknown
Apparent Declination
Unknown
Sunlit
N/A
Visualization observer readout
Local Sidereal Time
02:57:58
Azimuth
Unknown
Elevation
Unknown
Doppler factor
Unknown
Orbital elements
Apogee altitude
272.447 km
Perigee altitude
261.168 km
Semi-major axis
6,644.945 km
Eccentricity
0.00085
Inclination
97.3877°
RAAN
330.8382°
Arg. of periapsis
241.9502°
True anomaly
118.17775°
Mean anomaly
118.092°
Eccentric anomaly
118.13488°
Mean motion
4.00688 °/min
Orbital period
89.85 mins
BSTAR
0.001581
Loading maneuver chart data...
Computing Atmospheric mass density...
Loading historical data...
Loading historical data...
Loading historical data...
Loading historical data...
Loading historical data...
Loading historical data...
Loading historical data...

Documentation

Showing up to 5 results
|